This is the latest recevied weather packets stored in our database for station/object KF7U. If no packets are shown the sender has not sent any weather packets the latest 10 day(s).
| Time | Temp. | Humidity | Pressure | Rain* | Wind** | Luminosity | Snow |
|---|---|---|---|---|---|---|---|
| 1777938755 | 25° C | 35% | 1009.5 hPa | 0 mm | - | 231 W/m² | - |
| 1777938454 | 25° C | 35% | 1009.5 hPa | 0 mm | - | 249 W/m² | - |
| 1777938155 | 25° C | 35% | 1009.5 hPa | 0 mm | - | 248 W/m² | - |
| 1777937855 | 25.56° C | 34% | 1009.1 hPa | 0 mm | - | 258 W/m² | - |
| 1777937554 | 25.56° C | 34% | 1009.1 hPa | 0 mm | - | 247 W/m² | - |
| 1777937255 | 25.56° C | 33% | 1009.5 hPa | 0 mm | - | 260 W/m² | - |
| 1777936955 | 25.56° C | 34% | 1009.5 hPa | 0 mm | - | 283 W/m² | - |
| 1777936654 | 25.56° C | 34% | 1009.5 hPa | 0 mm | - | 288 W/m² | - |
| 1777936355 | 25.56° C | 34% | 1009.5 hPa | 0 mm | - | 322 W/m² | - |
| 1777936054 | 25.56° C | 34% | 1009.8 hPa | 0 mm | - | 331 W/m² | - |
| 1777935755 | 25.56° C | 33% | 1009.5 hPa | 0 mm | - | 332 W/m² | - |
| 1777935455 | 25.56° C | 34% | 1009.8 hPa | 0 mm | - | 355 W/m² | - |
| 1777935156 | 25.56° C | 33% | 1009.8 hPa | 0 mm | - | 354 W/m² | - |
| 1777934854 | 25.56° C | 34% | 1009.8 hPa | 0 mm | - | 348 W/m² | - |
| 1777934554 | 25.56° C | 34% | 1009.5 hPa | 0 mm | - | 313 W/m² | - |
| 1777934254 | 25.56° C | 34% | 1009.8 hPa | 0 mm | - | 327 W/m² | - |
| 1777933955 | 25.56° C | 35% | 1009.5 hPa | 0 mm | - | 358 W/m² | - |
| 1777933655 | 25° C | 35% | 1009.8 hPa | 0 mm | - | 327 W/m² | - |
| 1777933354 | 25.56° C | 35% | 1009.8 hPa | 0 mm | - | 279 W/m² | - |
| 1777933054 | 25.56° C | 35% | 1009.8 hPa | 0 mm | - | 264 W/m² | - |
| 1777932754 | 25.56° C | 35% | 1009.8 hPa | 0 mm | - | 288 W/m² | - |
| 1777932454 | 25.56° C | 35% | 1010.2 hPa | 0 mm | - | 298 W/m² | - |
| 1777932154 | 25° C | 36% | 1010.5 hPa | 0 mm | - | 294 W/m² | - |
| 1777931854 | 25° C | 36% | 1010.5 hPa | 0 mm | - | 321 W/m² | - |
| 1777931554 | 25° C | 36% | 1010.8 hPa | 0 mm | - | 269 W/m² | - |
* Rain latest hour (hover to see other rain measurements)
** Current wind speed in m/s (hover to see current wind gust speed)